This is the latest recevied weather packets stored in our database for station/object KD7CIH. If no packets are shown the sender has not sent any weather packets the latest 1 day(s).
| Time | Temp. | Humidity | Pressure | Rain* | Wind** | Luminosity | Snow |
|---|---|---|---|---|---|---|---|
| 1778042673 | -0.56° C | 81% | 1010.5 hPa | 0 mm | 4.92 m/s, 78° | - | - |
| 1778042502 | -0.56° C | 80% | 1010.2 hPa | 0 mm | 6.26 m/s, 75° | - | - |
| 1778042074 | -0.56° C | 79% | 1010 hPa | 0 mm | 7.15 m/s, 107° | - | - |
| 1778041900 | -0.56° C | 79% | 1010 hPa | 0 mm | 5.81 m/s, 86° | - | - |
| 1778041476 | -0.56° C | 80% | 1010.1 hPa | 0 mm | 4.92 m/s, 82° | - | - |
| 1778041174 | -0.56° C | 80% | 1010 hPa | 0 mm | 4.47 m/s, 87° | - | - |
| 1778040873 | -0.56° C | 79% | 1009.6 hPa | 0 mm | 4.02 m/s, 71° | - | - |
| 1778040573 | -0.56° C | 79% | 1009.6 hPa | 0 mm | 4.02 m/s, 86° | - | - |
| 1778040274 | -0.56° C | 78% | 1009.8 hPa | 0 mm | 3.58 m/s, 65° | - | - |
| 1778040102 | 0° C | 79% | 1009.6 hPa | 0 mm | 2.68 m/s, 58° | - | - |
| 1778039673 | 0° C | 80% | 1009.8 hPa | 0 mm | 2.68 m/s, 87° | - | - |
| 1778039376 | 0° C | 80% | 1009.4 hPa | 0 mm | 2.68 m/s, 130° | - | - |
| 1778039073 | 0° C | 79% | 1009.3 hPa | 0 mm | 2.68 m/s, 97° | - | - |
| 1778038902 | 0° C | 78% | 1009.2 hPa | 0 mm | 3.13 m/s, 151° | - | - |
| 1778038475 | 0.56° C | 77% | 1009.3 hPa | 0 mm | 4.47 m/s, 94° | - | - |
| 1778038173 | 0.56° C | 77% | 1009.3 hPa | 0 mm | 5.36 m/s, 77° | - | - |
| 1778038000 | 0.56° C | 77% | 1009.4 hPa | 0 mm | 6.26 m/s, 65° | - | - |
| 1778037576 | 0.56° C | 77% | 1009.2 hPa | 0 mm | 5.36 m/s, 63° | - | - |
| 1778037275 | 1.11° C | 78% | 1009.3 hPa | 0 mm | 4.02 m/s, 102° | - | - |
| 1778037101 | 1.11° C | 79% | 1009.3 hPa | 0 mm | 4.92 m/s, 73° | - | - |
| 1778036802 | 1.11° C | 78% | 1009.3 hPa | 0 mm | 4.92 m/s, 76° | - | - |
| 1778036375 | 1.11° C | 80% | 1009.2 hPa | 0 mm | 4.02 m/s, 53° | - | - |
| 1778036075 | 1.11° C | 80% | 1008.9 hPa | 0 mm | 3.13 m/s, 63° | - | - |
| 1778035776 | 1.11° C | 80% | 1008.8 hPa | 0 mm | 2.68 m/s, 48° | - | - |
| 1778035474 | 1.11° C | 80% | 1008.5 hPa | 0 mm | 2.68 m/s, 113° | - | - |
* Rain latest hour (hover to see other rain measurements)
** Current wind speed in m/s (hover to see current wind gust speed)